TimeSAST,TemperatureF,Dew PointF,Humidity,Sea Level PressureIn,VisibilityMPH,Wind Direction,Wind SpeedMPH,Gust SpeedMPH,PrecipitationIn,Events,Conditions,WindDirDegrees,DateUTC
12:00 AM,66.2,59.0,78,29.95,6.2,WNW,5.8,-,N/A,,Overcast,300,2013-03-06 22:00:00
1:00 AM,66.2,59.0,78,29.95,6.2,NW,4.6,-,N/A,,Mostly Cloudy,310,2013-03-06 23:00:00
2:00 AM,65,58,71,29.94,12,NNW,3.5,,,,,340,2013-03-07 00:00:00
2:00 AM,64.4,57.2,77,29.95,6.2,North,3.5,-,N/A,,Mostly Cloudy,350,2013-03-07 00:00:00
3:00 AM,64.4,57.2,77,29.92,6.2,Variable,2.3,-,N/A,,Mostly Cloudy,0,2013-03-07 01:00:00
4:00 AM,62.6,57.2,82,29.89,6.2,North,4.6,-,N/A,,Partly Cloudy,350,2013-03-07 02:00:00
5:00 AM,61,55,75,29.91,12,WNW,4.6,,,,Scattered Clouds,300,2013-03-07 03:00:00
5:00 AM,60.8,55.4,82,29.89,6.2,WNW,4.6,-,N/A,,Partly Cloudy,300,2013-03-07 03:00:00
6:00 AM,60.8,53.6,77,29.89,6.2,NW,4.6,-,N/A,,Scattered Clouds,310,2013-03-07 04:00:00
7:00 AM,60.8,55.4,82,29.89,6.2,NNW,4.6,-,N/A,,Partly Cloudy,330,2013-03-07 05:00:00
8:00 AM,64,57,72,29.91,12,WNW,3.5,,,,Scattered Clouds,290,2013-03-07 06:00:00
8:00 AM,64.4,57.2,77,29.89,6.2,WNW,3.5,-,N/A,,Partly Cloudy,290,2013-03-07 06:00:00
9:00 AM,69.8,57.2,64,29.89,6.2,West,8.1,-,N/A,,Partly Cloudy,260,2013-03-07 07:00:00
10:00 AM,71.6,57.2,60,29.89,6.2,WSW,8.1,-,N/A,,Partly Cloudy,250,2013-03-07 08:00:00
11:00 AM,71,56,50,29.90,12,SW,10.4,,,,Mostly Cloudy,220,2013-03-07 09:00:00
11:00 AM,71.6,57.2,60,29.89,6.2,SW,10.4,-,N/A,,Mostly Cloudy,220,2013-03-07 09:00:00
12:00 PM,73.4,57.2,57,29.86,6.2,WSW,6.9,-,N/A,,Scattered Clouds,240,2013-03-07 10:00:00
1:00 PM,73.4,59.0,61,29.86,6.2,South,10.4,-,N/A,,Partly Cloudy,190,2013-03-07 11:00:00
2:00 PM,73,59,51,29.85,12,South,9.2,,,,Scattered Clouds,190,2013-03-07 12:00:00
2:00 PM,73.4,59.0,61,29.83,6.2,South,9.2,-,N/A,,Partly Cloudy,180,2013-03-07 12:00:00
3:00 PM,69.8,59.0,68,29.83,6.2,South,12.7,-,N/A,,Partly Cloudy,190,2013-03-07 13:00:00
4:00 PM,71.6,59.0,64,29.83,6.2,South,10.4,-,N/A,,Mostly Cloudy,190,2013-03-07 14:00:00
5:00 PM,70,60,63,29.83,12,South,9.2,,,,Mostly Cloudy,170,2013-03-07 15:00:00
5:00 PM,69.8,59.0,68,29.83,6.2,South,9.2,-,N/A,,Mostly Cloudy,170,2013-03-07 15:00:00
6:00 PM,68.0,59.0,73,29.80,6.2,South,5.8,-,N/A,,Mostly Cloudy,170,2013-03-07 16:00:00
7:00 PM,68.0,60.8,78,29.80,6.2,SSE,4.6,-,N/A,,Mostly Cloudy,150,2013-03-07 17:00:00
8:00 PM,67,59,70,29.83,12,South,3.5,,,,Mostly Cloudy,180,2013-03-07 18:00:00
8:00 PM,66.2,59.0,78,29.83,6.2,South,3.5,-,N/A,,Mostly Cloudy,170,2013-03-07 18:00:00
9:00 PM,66.2,59.0,78,29.83,6.2,South,2.3,-,N/A,,Mostly Cloudy,190,2013-03-07 19:00:00
10:00 PM,66.2,60.8,83,29.83,6.2,SSW,2.3,-,N/A,,Mostly Cloudy,210,2013-03-07 20:00:00
11:00 PM,66.2,60.8,83,29.83,6.2,West,3.5,-,N/A,,Overcast,270,2013-03-07 21:00:00